Location: Newark
(40.2370°N, 1.4081°W)
Time: 16:59:20
(UTC+00:00)

NOAA 15 - Visible Passes

Search period start: 05 December 2019 00:00
Search period end: 15 December 2019 00:00
Orbit: 797 x 813 km, 98.7° (Epoch: 04 December)

Date Brightness Start Highest point End Pass type
(mag) Time Alt. Az. Time Alt. Az. Time Alt. Az.
05 Dec 7.9 06:03:56 10° ENE 06:05:34 11° E 06:07:12 10° ESE visible
05 Dec 5.8 17:22:24 10° ESE 17:26:04 20° ENE 17:29:44 10° NNE visible
05 Dec 5.2 19:00:16 10° S 19:05:25 54° W 19:10:34 10° NNW visible
06 Dec 4.5 18:35:03 10° SSE 18:40:19 88° ENE 18:45:36 10° NNW visible
06 Dec 7.7 20:20:02 10° W 20:20:43 10° W 20:21:25 10° W visible
07 Dec 4.7 18:10:13 10° SSE 18:15:18 52° ENE 18:20:23 10° N visible
07 Dec 7.1 19:51:43 10° SW 19:55:21 19° W 19:58:59 10° NW visible
08 Dec 7.4 06:26:34 10° NE 06:30:23 20° E 06:34:11 10° SE visible
08 Dec 5.3 17:45:48 10° SE 17:50:22 31° ENE 17:54:57 10° N visible
08 Dec 6.2 19:25:24 10° SSW 19:30:04 32° W 19:34:44 10° NW visible
09 Dec 7.9 06:03:30 10° ENE 06:05:01 11° E 06:06:32 10° ESE visible
09 Dec 5.8 17:21:55 10° ESE 17:25:33 19° ENE 17:29:10 10° NNE visible
09 Dec 5.2 18:59:43 10° S 19:04:52 55° W 19:10:02 10° NNW visible
10 Dec 4.5 18:34:30 10° SSE 18:39:46 87° ENE 18:45:03 10° NNW visible
10 Dec 7.7 20:19:16 10° W 20:20:10 10° W 20:21:06 10° WNW visible
11 Dec 4.7 18:09:41 10° SE 18:14:45 51° ENE 18:19:50 10° N visible
11 Dec 7.0 19:51:08 10° SW 19:54:48 19° W 19:58:29 10° NW visible
12 Dec 7.4 06:26:03 10° NE 06:29:51 20° E 06:33:37 10° SE visible
12 Dec 5.3 17:45:17 10° SE 17:49:50 31° ENE 17:54:23 10° N visible
12 Dec 6.2 19:24:50 10° SSW 19:29:31 32° W 19:34:13 10° NNW visible
13 Dec 7.9 06:03:04 10° ENE 06:04:28 11° E 06:05:52 10° ESE visible
13 Dec 5.8 17:21:26 10° ESE 17:25:00 19° ENE 17:28:35 10° NNE visible
13 Dec 5.2 18:59:11 10° S 19:04:20 56° W 19:09:30 10° NNW visible
14 Dec 4.5 18:33:58 10° SSE 18:39:13 86° ENE 18:44:30 10° NNW visible
14 Dec 7.6 20:18:32 10° W 20:19:37 11° W 20:20:43 10° WNW visible
